Weather History for Monroe, WI

Change the Weather History Date:

Friday, January 18, 2013

  Actual Average Record
Temperature  
Mean Temperature 30 °F -  
Max Temperature 41 °F 0 °F 41 °F (2013)
Min Temperature 19 °F - -5 °F (2005)
Degree Days  
Heating Degree Days 35    
Moisture  
Dew Point 26 °F    
Average Humidity 80    
Maximum Humidity 93    
Minimum Humidity 65    
Precipitation  
Precipitation 0.00 in - - ()
Sea Level Pressure  
Sea Level Pressure 30.05 in    
Wind  
Wind Speed 12 mph (SSW)    
Max Wind Speed 30 mph    
Max Gust Speed 40 mph    
Visibility 10 miles    
Events      
Averages and records for this station are not official NWS values.
T = Trace of Precipitation, MM = Missing Value Source: NWS Daily Summary

Daily Weather History Graph

Daily Weather History Graph

Search for Another Location

Airport:

Trip Planner

Search our weather history database for the weather conditions in past years. The results will help you decide how hot, cold, wet, or windy it might be!

Date:

Astronomy

Jan. 18, 2013 Rise Set
Actual Time 7:23 AM CST 4:54 PM CST
Civil Twilight 6:52 AM CST 5:25 PM CST
Nautical Twilight 6:18 AM CST 5:59 PM CST
Astronomical Twilight 5:44 AM CST 6:33 PM CST
Moon 10:51 AM CST (1/18) No Moon Set
Length of Visible Light 10h 32m
Length of Day
9h 30m
Waxing Crescent, 47% of the Moon is Illuminated
Jan 18
Waxing Crescent
Jan 18
First Quarter
Jan 26
Full
Feb 3
Last Quarter
Feb 10
New

Hourly Weather History & Observations

Time (CST) Temp. Windchill Dew Point Humidity Pressure Visibility Wind Dir Wind Speed Gust Speed Precip Events Conditions
12:15 AM 21.2 °F 16.4 °F 17.6 °F 86% 30.35 in 10.0 mi West 3.5 mph - N/A   Mostly Cloudy
12:35 AM 21.2 °F 14.9 °F 17.6 °F 86% 30.35 in 10.0 mi West 4.6 mph - N/A   Mostly Cloudy
12:55 AM 19.4 °F 12.8 °F 17.6 °F 93% 30.35 in 10.0 mi West 4.6 mph - N/A   Overcast
1:15 AM 21.2 °F 12.6 °F 19.4 °F 93% 30.36 in 10.0 mi West 6.9 mph - N/A   Overcast
1:35 AM 21.2 °F 13.6 °F 19.4 °F 93% 30.37 in 10.0 mi WSW 5.8 mph - N/A   Overcast
1:55 AM 21.2 °F 14.9 °F 19.4 °F 93% 30.37 in 10.0 mi WSW 4.6 mph - N/A   Overcast
2:15 AM 21.2 °F - 17.6 °F 86% 30.36 in 10.0 mi Calm Calm - N/A   Overcast
2:35 AM 21.2 °F - 17.6 °F 86% 30.36 in 10.0 mi Calm Calm - N/A   Overcast
2:55 AM 21.2 °F - 19.4 °F 93% 30.35 in 10.0 mi Calm Calm - N/A   Overcast
3:15 AM 21.2 °F - 19.4 °F 93% 30.33 in 10.0 mi Calm Calm - N/A   Overcast
3:35 AM 21.2 °F 16.4 °F 19.4 °F 93% 30.32 in 10.0 mi ESE 3.5 mph - N/A   Overcast
3:55 AM 21.2 °F 16.4 °F 19.4 °F 93% 30.30 in 10.0 mi ENE 3.5 mph - N/A   Overcast
4:15 AM 21.2 °F 13.6 °F 19.4 °F 93% 30.29 in 10.0 mi ESE 5.8 mph - N/A   Overcast
4:35 AM 21.2 °F 13.6 °F 19.4 °F 93% 30.29 in 10.0 mi SE 5.8 mph - N/A   Overcast
4:55 AM 21.2 °F 12.6 °F 19.4 °F 93% 30.29 in 10.0 mi SE 6.9 mph - N/A   Overcast
5:15 AM 21.2 °F 10.9 °F 19.4 °F 93% 30.28 in 10.0 mi SSE 9.2 mph - N/A   Overcast
5:35 AM 21.2 °F 10.9 °F 19.4 °F 93% 30.27 in 10.0 mi SSE 9.2 mph - N/A   Mostly Cloudy
6:15 AM 21.2 °F 10.1 °F 19.4 °F 93% 30.26 in 10.0 mi South 10.4 mph - N/A   Scattered Clouds
6:35 AM 23.0 °F 11.7 °F 19.4 °F 86% 30.25 in 10.0 mi South 11.5 mph - N/A   Scattered Clouds
6:55 AM 23.0 °F 11.7 °F 19.4 °F 86% 30.24 in 10.0 mi South 11.5 mph - N/A   Overcast
7:15 AM 23.0 °F 10.6 °F 19.4 °F 86% 30.21 in 10.0 mi SSE 13.8 mph 18.4 mph N/A   Overcast
7:35 AM 24.8 °F 13.4 °F 19.4 °F 80% 30.20 in 10.0 mi SSE 12.7 mph - N/A   Overcast
7:55 AM 24.8 °F 13.4 °F 21.2 °F 86% 30.19 in 10.0 mi South 12.7 mph - N/A   Overcast
8:15 AM 26.6 °F 15.2 °F 21.2 °F 80% 30.19 in 10.0 mi South 13.8 mph - N/A   Overcast
8:35 AM 28.4 °F 16.2 °F 21.2 °F 74% 30.17 in 10.0 mi South 17.3 mph - N/A   Scattered Clouds
8:55 AM 30.2 °F 17.4 °F 23.0 °F 75% 30.16 in 10.0 mi South 20.7 mph 26.5 mph N/A   Clear
9:15 AM 30.2 °F 16.8 °F 23.0 °F 75% 30.15 in 10.0 mi South 23.0 mph 31.1 mph N/A   Clear
9:35 AM 32.0 °F 18.9 °F 23.0 °F 69% 30.14 in 10.0 mi South 24.2 mph 31.1 mph N/A   Clear
9:55 AM 32.0 °F 18.4 °F 23.0 °F 69% 30.13 in 10.0 mi South 26.5 mph 36.8 mph N/A   Clear
10:15 AM 32.0 °F 18.6 °F 23.0 °F 69% 30.12 in 10.0 mi SSW 25.3 mph 38.0 mph N/A   Clear
10:35 AM 32.0 °F 18.1 °F 24.8 °F 75% 30.10 in 10.0 mi SSW 27.6 mph 34.5 mph N/A   Clear
10:55 AM 33.8 °F 20.5 °F 24.8 °F 70% 30.07 in 10.0 mi South 27.6 mph 36.8 mph N/A   Clear
11:15 AM 33.8 °F 20.3 °F 26.6 °F 75% 30.05 in 10.0 mi SSW 28.8 mph 39.1 mph N/A   Clear
11:35 AM 33.8 °F 20.8 °F 26.6 °F 75% 30.03 in 10.0 mi SSW 26.5 mph 36.8 mph N/A   Clear
11:55 AM 35.6 °F 23.7 °F 26.6 °F 70% 30.00 in 10.0 mi SSW 24.2 mph 38.0 mph N/A   Clear
12:15 PM 35.6 °F 22.5 °F 28.4 °F 75% 29.98 in 10.0 mi SSW 29.9 mph 38.0 mph N/A   Clear
12:35 PM 37.4 °F 25.0 °F 28.4 °F 70% 29.95 in 10.0 mi SSW 29.9 mph 39.1 mph N/A   Clear
12:55 PM 37.4 °F 25.4 °F 28.4 °F 70% 29.94 in 10.0 mi SSW 27.6 mph 34.5 mph N/A   Clear
1:15 PM 37.4 °F 25.4 °F 28.4 °F 70% 29.93 in 10.0 mi South 27.6 mph 36.8 mph N/A   Clear
1:35 PM 39.2 °F 28.3 °F 30.2 °F 70% 29.91 in 10.0 mi South 25.3 mph 32.2 mph N/A   Clear
1:55 PM 41.0 °F 30.0 °F 30.2 °F 65% 29.89 in 10.0 mi SSW 28.8 mph 40.3 mph N/A   Clear
2:15 PM 41.0 °F 30.5 °F 30.2 °F 65% 29.88 in 10.0 mi SSW 26.5 mph 39.1 mph N/A   Clear
2:35 PM 41.0 °F 31.1 °F 30.2 °F 65% 29.89 in 10.0 mi SSW 23.0 mph 31.1 mph N/A   Clear
2:55 PM 41.0 °F 31.1 °F 30.2 °F 65% 29.89 in 10.0 mi SSW 23.0 mph 33.4 mph N/A   Clear
3:15 PM 41.0 °F 31.1 °F 30.2 °F 65% 29.87 in 10.0 mi SSW 23.0 mph 31.1 mph N/A   Clear
3:35 PM 41.0 °F 30.9 °F 32.0 °F 70% 29.86 in 10.0 mi SSW 24.2 mph 29.9 mph N/A   Clear
3:55 PM 41.0 °F 31.1 °F 32.0 °F 70% 29.85 in 10.0 mi SSW 23.0 mph 33.4 mph N/A   Clear
4:15 PM 41.0 °F 31.4 °F 32.0 °F 70% 29.86 in 10.0 mi SSW 21.9 mph 33.4 mph N/A   Clear
4:35 PM 41.0 °F 31.1 °F 32.0 °F 70% 29.85 in 10.0 mi SSW 23.0 mph 31.1 mph N/A   Clear
4:55 PM 41.0 °F 32.2 °F 32.0 °F 70% 29.85 in 10.0 mi SSW 18.4 mph - N/A   Clear
5:15 PM 39.2 °F 29.8 °F 32.0 °F 75% 29.86 in 10.0 mi SSW 18.4 mph - N/A   Clear
5:35 PM 39.2 °F 29.3 °F 32.0 °F 75% 29.85 in 10.0 mi SSW 20.7 mph - N/A   Clear
5:55 PM 37.4 °F 26.6 °F 32.0 °F 81% 29.84 in 10.0 mi SSW 21.9 mph - N/A   Clear
6:15 PM 37.4 °F 26.9 °F 32.0 °F 81% 29.85 in 10.0 mi South 20.7 mph - N/A   Clear
6:35 PM 37.4 °F 27.5 °F 32.0 °F 81% 29.85 in 10.0 mi SSW 18.4 mph - N/A   Clear
6:55 PM 37.4 °F 27.8 °F 32.0 °F 81% 29.85 in 10.0 mi SSW 17.3 mph - N/A   Clear
7:15 PM 37.4 °F 27.8 °F 32.0 °F 81% 29.85 in 10.0 mi SSW 17.3 mph - N/A   Clear
7:35 PM 37.4 °F 27.8 °F 32.0 °F 81% 29.85 in 10.0 mi SSW 17.3 mph - N/A   Clear
7:55 PM 37.4 °F 28.5 °F 32.0 °F 81% 29.85 in 10.0 mi SSW 15.0 mph - N/A   Clear
8:15 PM 35.6 °F 26.6 °F 32.0 °F 87% 29.85 in 10.0 mi SSW 13.8 mph - N/A   Clear
8:35 PM 35.6 °F 27.1 °F 32.0 °F 87% 29.84 in 10.0 mi SSW 12.7 mph - N/A   Clear
8:55 PM 35.6 °F 27.1 °F 33.8 °F 93% 29.84 in 10.0 mi SSW 12.7 mph - N/A   Clear
9:15 PM 35.6 °F 26.6 °F 32.0 °F 87% 29.84 in 10.0 mi SSW 13.8 mph - N/A   Clear
9:35 PM 39.2 °F 29.8 °F 32.0 °F 75% 29.84 in 10.0 mi SSW 18.4 mph - N/A   Clear
9:55 PM 39.2 °F 29.3 °F 32.0 °F 75% 29.83 in 10.0 mi SW 20.7 mph 25.3 mph N/A   Clear
10:15 PM 37.4 °F 27.8 °F 32.0 °F 81% 29.83 in 10.0 mi SW 17.3 mph - N/A   Clear
10:35 PM 37.4 °F 28.2 °F 32.0 °F 81% 29.83 in 10.0 mi SW 16.1 mph - N/A   Clear
10:55 PM 37.4 °F 28.2 °F 32.0 °F 81% 29.83 in 10.0 mi SW 16.1 mph - N/A   Clear
11:15 PM 37.4 °F 28.2 °F 32.0 °F 81% 29.83 in 10.0 mi SW 16.1 mph - N/A   Clear
11:35 PM 37.4 °F 28.5 °F 32.0 °F 81% 29.83 in 10.0 mi SW 15.0 mph - N/A   Clear
11:55 PM 35.6 °F 25.9 °F 32.0 °F 87% 29.83 in 10.0 mi SW 16.1 mph - N/A   Clear